Location: Lawrence Hall of Science
(37.8785°N, 122.2415°W)
Time: 05:17:42
(UTC-07:00)

ARGOS - Visible Passes

Search period start: 28 March 2015 00:00
Search period end: 07 April 2015 00:00
Orbit: 820 x 835 km, 98.7° (Epoch: 28 March)

Date Brightness Start Highest point End Pass type
(mag) Time Alt. Az. Time Alt. Az. Time Alt. Az.
28 Mar 4.8 21:44:40 20° NE 21:44:40 20° NE 21:47:01 10° NNE visible
28 Mar 5.5 23:26:11 19° NW 23:26:11 19° NW 23:27:44 10° NNW visible
29 Mar 5.0 21:25:52 16° NE 21:25:52 16° NE 21:27:52 10° NNE visible
29 Mar 5.1 23:07:22 24° NNW 23:07:22 24° NNW 23:09:30 10° NNW visible
30 Mar 5.2 21:07:03 11° NE 21:07:03 11° NE 21:08:01 10° NE visible
30 Mar 4.8 22:48:34 29° NNW 22:48:34 29° NNW 22:51:06 10° NNW visible
31 Mar 4.5 22:29:45 31° N 22:29:45 31° N 22:32:35 10° N visible
01 Apr 4.4 22:10:56 30° NNE 22:10:56 30° NNE 22:13:55 10° N visible
01 Apr 5.8 23:52:27 14° NW 23:52:27 14° NW 23:53:22 10° NW visible
02 Apr 4.6 21:52:08 25° NE 21:52:08 25° NE 21:55:06 10° N visible
02 Apr 5.4 23:33:39 19° NW 23:33:39 19° NW 23:35:27 10° NNW visible
03 Apr 4.8 21:33:19 19° NE 21:33:19 19° NE 21:36:04 10° NNE visible
03 Apr 5.0 23:14:50 26° NW 23:14:50 26° NW 23:17:18 10° NNW visible
04 Apr 5.0 21:14:30 14° NE 21:14:30 14° NE 21:16:39 10° NNE visible
04 Apr 4.6 22:56:01 33° NNW 22:56:01 33° NNW 22:58:58 10° NNW visible
05 Apr 4.3 22:37:13 38° N 22:37:13 38° N 22:40:29 10° N visible
06 Apr 4.1 22:18:24 37° NNE 22:18:24 37° NNE 22:21:53 10° N visible
